owner,sensor,date,latitude,longitude,vertical_datum,sea_water_temperature,qcFlag
Murphy,ioos:station:wmo:42877:1,2023-01-01T00:00:00Z,28.9072,-88.5825,9.3,23.0,11111222
Murphy,ioos:station:wmo:42877:1,2023-01-01T00:10:00Z,28.9072,-88.5825,9.3,23.0,11111222
Murphy,ioos:station:wmo:42877:1,2023-01-01T00:20:00Z,28.9072,-88.5825,9.3,23.0,11111222
Murphy,ioos:station:wmo:42877:1,2023-01-01T00:30:00Z,28.9072,-88.5825,9.3,23.0,11111222
Murphy,ioos:station:wmo:42877:1,2023-01-01T00:40:00Z,28.9072,-88.5825,9.3,23.0,11111222
Murphy,ioos:station:wmo:42877:1,2023-01-01T00:50:00Z,28.9072,-88.5825,9.3,23.0,11111222
Murphy,ioos:station:wmo:42877:1,2023-01-01T01:00:00Z,28.9072,-88.5825,9.3,22.9,11111222
Murphy,ioos:station:wmo:42877:1,2023-01-01T01:10:00Z,28.9072,-88.5825,9.3,22.9,11111222
Murphy,ioos:station:wmo:42877:1,2023-01-01T01:20:00Z,28.9072,-88.5825,9.3,22.9,11111222
Murphy,ioos:station:wmo:42877:1,2023-01-01T01:30:00Z,28.9072,-88.5825,9.3,22.8,11111222
Murphy,ioos:station:wmo:42877:1,2023-01-01T01:40:00Z,28.9072,-88.5825,9.3,22.7,11111222
Murphy,ioos:station:wmo:42877:1,2023-01-01T01:50:00Z,28.9072,-88.5825,9.3,22.7,11111222
Murphy,ioos:station:wmo:42877:1,2023-01-01T02:00:00Z,28.9072,-88.5825,9.3,22.7,11111222
Murphy,ioos:station:wmo:42877:1,2023-01-01T02:10:00Z,28.9072,-88.5825,9.3,22.6,11111222
Murphy,ioos:station:wmo:42877:1,2023-01-01T02:20:00Z,28.9072,-88.5825,9.3,22.6,11111222
Murphy,ioos:station:wmo:42877:1,2023-01-01T02:30:00Z,28.9072,-88.5825,9.3,22.6,11111222
Murphy,ioos:station:wmo:42877:1,2023-01-01T02:40:00Z,28.9072,-88.5825,9.3,22.6,11111222
Murphy,ioos:station:wmo:42877:1,2023-01-01T02:50:00Z,28.9072,-88.5825,9.3,22.6,11111222
Murphy,ioos:station:wmo:42877:1,2023-01-01T03:00:00Z,28.9072,-88.5825,9.3,22.5,11111222
Murphy,ioos:station:wmo:42877:1,2023-01-01T03:10:00Z,28.9072,-88.5825,9.3,22.5,11111222
Murphy,ioos:station:wmo:42877:1,2023-01-01T03:20:00Z,28.9072,-88.5825,9.3,22.5,11111222
Murphy,ioos:station:wmo:42877:1,2023-01-01T03:30:00Z,28.9072,-88.5825,9.3,22.5,11111222
Murphy,ioos:station:wmo:42877:1,2023-01-01T03:40:00Z,28.9072,-88.5825,9.3,22.5,11111222
Murphy,ioos:station:wmo:42877:1,2023-01-01T03:50:00Z,28.9072,-88.5825,9.3,22.5,11111222
Murphy,ioos:station:wmo:42877:1,2023-01-01T04:00:00Z,28.9072,-88.5825,9.2,22.5,11111222
Murphy,ioos:station:wmo:42877:1,2023-01-01T04:10:00Z,28.9072,-88.5825,9.2,22.5,11111222
Murphy,ioos:station:wmo:42877:1,2023-01-01T04:20:00Z,28.9072,-88.5825,9.2,22.5,11111222
Murphy,ioos:station:wmo:42877:1,2023-01-01T04:30:00Z,28.9072,-88.5825,9.2,22.5,11111222
Murphy,ioos:station:wmo:42877:1,2023-01-01T04:41:00Z,28.9072,-88.5825,9.2,22.5,11111222
Murphy,ioos:station:wmo:42877:1,2023-01-01T04:51:00Z,28.9072,-88.5825,9.2,22.5,11111222
Murphy,ioos:station:wmo:42877:1,2023-01-01T05:01:00Z,28.9072,-88.5825,9.2,22.4,11111222
Murphy,ioos:station:wmo:42877:1,2023-01-01T05:11:00Z,28.9072,-88.5825,9.2,22.4,11111222
Murphy,ioos:station:wmo:42877:1,2023-01-01T05:21:00Z,28.9072,-88.5825,9.2,22.5,11111222
Murphy,ioos:station:wmo:42877:1,2023-01-01T05:31:00Z,28.9072,-88.5825,9.2,22.5,11111222
Murphy,ioos:station:wmo:42877:1,2023-01-01T05:41:00Z,28.9072,-88.5825,9.2,22.4,11111222
Murphy,ioos:station:wmo:42877:1,2023-01-01T05:51:00Z,28.9072,-88.5825,9.2,22.4,11111222
Murphy,ioos:station:wmo:42877:1,2023-01-01T06:01:00Z,28.9072,-88.5825,9.2,22.4,11111222
Murphy,ioos:station:wmo:42877:1,2023-01-01T06:11:00Z,28.9072,-88.5825,9.2,22.4,11111222
Murphy,ioos:station:wmo:42877:1,2023-01-01T06:21:00Z,28.9072,-88.5825,9.2,22.4,11111222
Murphy,ioos:station:wmo:42877:1,2023-01-01T06:31:00Z,28.9072,-88.5825,9.2,22.4,11111222
Murphy,ioos:station:wmo:42877:1,2023-01-01T06:41:00Z,28.9072,-88.5825,9.2,22.4,11111222
Murphy,ioos:station:wmo:42877:1,2023-01-01T06:51:00Z,28.9072,-88.5825,9.2,22.3,11111222
Murphy,ioos:station:wmo:42877:1,2023-01-01T07:01:00Z,28.9072,-88.5825,9.2,22.3,11111222
Murphy,ioos:station:wmo:42877:1,2023-01-01T07:11:00Z,28.9072,-88.5825,9.2,22.3,11111222
Murphy,ioos:station:wmo:42877:1,2023-01-01T07:21:00Z,28.9072,-88.5825,9.2,22.3,11111222
Murphy,ioos:station:wmo:42877:1,2023-01-01T07:31:00Z,28.9072,-88.5825,9.2,22.2,11111222
Murphy,ioos:station:wmo:42877:1,2023-01-01T07:41:00Z,28.9072,-88.5825,9.2,22.2,11111222
Murphy,ioos:station:wmo:42877:1,2023-01-01T07:51:00Z,28.9072,-88.5825,9.2,22.1,11111222
Murphy,ioos:station:wmo:42877:1,2023-01-01T08:01:00Z,28.9072,-88.5825,9.2,22.1,11111222
Murphy,ioos:station:wmo:42877:1,2023-01-01T08:11:00Z,28.9072,-88.5825,9.2,22.1,11111222
Murphy,ioos:station:wmo:42877:1,2023-01-01T08:21:00Z,28.9072,-88.5825,9.2,22.1,11111222
Murphy,ioos:station:wmo:42877:1,2023-01-01T08:31:00Z,28.9072,-88.5825,9.2,22.1,11111222
Murphy,ioos:station:wmo:42877:1,2023-01-01T08:41:00Z,28.9072,-88.5825,9.2,22.1,11111222
Murphy,ioos:station:wmo:42877:1,2023-01-01T08:51:00Z,28.9072,-88.5825,9.2,22.1,11111222
Murphy,ioos:station:wmo:42877:1,2023-01-01T09:01:00Z,28.9072,-88.5825,9.2,22.1,11111222
Murphy,ioos:station:wmo:42877:1,2023-01-01T09:11:00Z,28.9072,-88.5825,9.2,22.1,11111222
Murphy,ioos:station:wmo:42877:1,2023-01-01T09:21:00Z,28.9072,-88.5825,9.2,22.1,11111222
Murphy,ioos:station:wmo:42877:1,2023-01-01T09:31:00Z,28.9072,-88.5825,9.2,22.1,11111222
Murphy,ioos:station:wmo:42877:1,2023-01-01T09:41:00Z,28.9072,-88.5825,9.2,22.1,11111222
Murphy,ioos:station:wmo:42877:1,2023-01-01T09:51:00Z,28.9072,-88.5825,9.2,22.1,11111222
Murphy,ioos:station:wmo:42877:1,2023-01-01T10:01:00Z,28.9072,-88.5825,9.2,22.1,11111222
Murphy,ioos:station:wmo:42877:1,2023-01-01T10:11:00Z,28.9072,-88.5825,9.2,22.1,11111222
Murphy,ioos:station:wmo:42877:1,2023-01-01T10:21:00Z,28.9072,-88.5825,9.2,22.2,11111222
Murphy,ioos:station:wmo:42877:1,2023-01-01T10:31:00Z,28.9072,-88.5825,9.2,22.2,11111222
Murphy,ioos:station:wmo:42877:1,2023-01-01T10:41:00Z,28.9072,-88.5825,9.2,22.2,11111222
Murphy,ioos:station:wmo:42877:1,2023-01-01T10:51:00Z,28.9072,-88.5825,9.2,22.2,11111222
Murphy,ioos:station:wmo:42877:1,2023-01-01T11:01:00Z,28.9072,-88.5825,9.2,22.2,11111222
Murphy,ioos:station:wmo:42877:1,2023-01-01T11:11:00Z,28.9072,-88.5825,9.2,22.2,11111222
Murphy,ioos:station:wmo:42877:1,2023-01-01T11:21:00Z,28.9072,-88.5825,9.2,22.2,11111222
Murphy,ioos:station:wmo:42877:1,2023-01-01T11:31:00Z,28.9072,-88.5825,9.2,22.2,11111222
Murphy,ioos:station:wmo:42877:1,2023-01-01T11:41:00Z,28.9072,-88.5825,9.2,22.2,11111222
Murphy,ioos:station:wmo:42877:1,2023-01-01T11:51:00Z,28.9072,-88.5825,9.2,22.2,11111222
Murphy,ioos:station:wmo:42877:1,2023-01-01T12:02:00Z,28.9072,-88.5825,9.2,22.2,11111222
Murphy,ioos:station:wmo:42877:1,2023-01-01T12:12:00Z,28.9072,-88.5825,9.2,22.2,11111222
Murphy,ioos:station:wmo:42877:1,2023-01-01T12:22:00Z,28.9072,-88.5825,9.2,22.2,11111222
Murphy,ioos:station:wmo:42877:1,2023-01-01T12:32:00Z,28.9072,-88.5825,9.2,22.2,11111222
Murphy,ioos:station:wmo:42877:1,2023-01-01T12:42:00Z,28.9072,-88.5825,9.2,22.2,11111222
Murphy,ioos:station:wmo:42877:1,2023-01-01T12:52:00Z,28.9072,-88.5825,9.2,22.2,11111222
Murphy,ioos:station:wmo:42877:1,2023-01-01T13:02:00Z,28.9072,-88.5825,9.2,22.2,11111222
Murphy,ioos:station:wmo:42877:1,2023-01-01T13:12:00Z,28.9072,-88.5825,9.2,22.1,11111222
Murphy,ioos:station:wmo:42877:1,2023-01-01T13:22:00Z,28.9072,-88.5825,9.2,22.3,11111222
Murphy,ioos:station:wmo:42877:1,2023-01-01T13:32:00Z,28.9072,-88.5825,9.2,22.3,11111222
Murphy,ioos:station:wmo:42877:1,2023-01-01T13:42:00Z,28.9072,-88.5825,9.2,22.4,11111222
Murphy,ioos:station:wmo:42877:1,2023-01-01T13:52:00Z,28.9072,-88.5825,9.2,22.4,11111222
Murphy,ioos:station:wmo:42877:1,2023-01-01T14:02:00Z,28.9072,-88.5825,9.2,22.4,11111222
Murphy,ioos:station:wmo:42877:1,2023-01-01T14:12:00Z,28.9072,-88.5825,9.2,22.5,11111222
Murphy,ioos:station:wmo:42877:1,2023-01-01T14:22:00Z,28.9072,-88.5825,9.2,22.5,11111222
Murphy,ioos:station:wmo:42877:1,2023-01-01T14:32:00Z,28.9072,-88.5825,9.2,22.5,11111222
Murphy,ioos:station:wmo:42877:1,2023-01-01T14:42:00Z,28.9072,-88.5825,9.4,22.5,11111222
Murphy,ioos:station:wmo:42877:1,2023-01-01T14:52:00Z,28.9072,-88.5825,9.4,22.5,11111222
Murphy,ioos:station:wmo:42877:1,2023-01-01T15:02:00Z,28.9072,-88.5825,9.2,22.5,11111222
Murphy,ioos:station:wmo:42877:1,2023-01-01T15:12:00Z,28.9072,-88.5825,9.3,22.5,11111222
Murphy,ioos:station:wmo:42877:1,2023-01-01T15:22:00Z,28.9072,-88.5825,9.2,22.5,11111222
Murphy,ioos:station:wmo:42877:1,2023-01-01T15:32:00Z,28.9072,-88.5825,9.2,22.5,11111222
Murphy,ioos:station:wmo:42877:1,2023-01-01T15:42:00Z,28.9072,-88.5825,9.2,22.5,11111222
Murphy,ioos:station:wmo:42877:1,2023-01-01T15:52:00Z,28.9072,-88.5825,9.3,22.5,11111222
Murphy,ioos:station:wmo:42877:1,2023-01-01T16:02:00Z,28.9072,-88.5825,9.3,22.5,11111222
Murphy,ioos:station:wmo:42877:1,2023-01-01T16:12:00Z,28.9072,-88.5825,9.3,22.5,11111222
Murphy,ioos:station:wmo:42877:1,2023-01-01T16:22:00Z,28.9072,-88.5825,9.3,22.5,11111222
Murphy,ioos:station:wmo:42877:1,2023-01-01T16:32:00Z,28.9072,-88.5825,9.3,22.5,11111222
Murphy,ioos:station:wmo:42877:1,2023-01-01T16:42:00Z,28.9072,-88.5825,9.3,22.5,11111222
Murphy,ioos:station:wmo:42877:1,2023-01-01T16:52:00Z,28.9072,-88.5825,9.3,22.6,11111222
Murphy,ioos:station:wmo:42877:1,2023-01-01T17:02:00Z,28.9072,-88.5825,9.3,22.5,11111222
Murphy,ioos:station:wmo:42877:1,2023-01-01T17:12:00Z,28.9072,-88.5825,9.3,22.6,11111222
Murphy,ioos:station:wmo:42877:1,2023-01-01T17:22:00Z,28.9072,-88.5825,9.3,22.6,11111222
Murphy,ioos:station:wmo:42877:1,2023-01-01T17:32:00Z,28.9072,-88.5825,9.3,22.6,11111222
Murphy,ioos:station:wmo:42877:1,2023-01-01T17:42:00Z,28.9072,-88.5825,9.2,22.6,11111222
Murphy,ioos:station:wmo:42877:1,2023-01-01T17:52:00Z,28.9072,-88.5825,9.2,22.6,11111222
Murphy,ioos:station:wmo:42877:1,2023-01-01T18:02:00Z,28.9072,-88.5825,9.3,22.6,11111222
Murphy,ioos:station:wmo:42877:1,2023-01-01T18:12:00Z,28.9072,-88.5825,9.3,22.6,11111222
Murphy,ioos:station:wmo:42877:1,2023-01-01T18:22:00Z,28.9072,-88.5825,9.3,22.6,11111222
Murphy,ioos:station:wmo:42877:1,2023-01-01T18:32:00Z,28.9072,-88.5825,9.3,22.7,11111222
Murphy,ioos:station:wmo:42877:1,2023-01-01T18:42:00Z,28.9072,-88.5825,9.3,22.7,11111222
Murphy,ioos:station:wmo:42877:1,2023-01-01T18:52:00Z,28.9072,-88.5825,9.3,22.7,11111222
Murphy,ioos:station:wmo:42877:1,2023-01-01T19:02:00Z,28.9072,-88.5825,9.3,22.7,11111222
Murphy,ioos:station:wmo:42877:1,2023-01-01T19:12:00Z,28.9072,-88.5825,9.3,22.7,11111222
Murphy,ioos:station:wmo:42877:1,2023-01-01T19:23:00Z,28.9072,-88.5825,9.3,22.8,11111222
Murphy,ioos:station:wmo:42877:1,2023-01-01T19:33:00Z,28.9072,-88.5825,9.3,22.8,11111222
Murphy,ioos:station:wmo:42877:1,2023-01-01T19:43:00Z,28.9072,-88.5825,9.3,22.9,11111222
Murphy,ioos:station:wmo:42877:1,2023-01-01T19:53:00Z,28.9072,-88.5825,9.3,22.9,11111222
Murphy,ioos:station:wmo:42877:1,2023-01-01T20:03:00Z,28.9072,-88.5825,9.2,23.0,11111222
Murphy,ioos:station:wmo:42877:1,2023-01-01T20:13:00Z,28.9072,-88.5825,9.2,23.1,11111222
Murphy,ioos:station:wmo:42877:1,2023-01-01T20:23:00Z,28.9072,-88.5825,9.2,23.1,11111222
Murphy,ioos:station:wmo:42877:1,2023-01-01T20:33:00Z,28.9072,-88.5825,9.3,23.0,11111222
Murphy,ioos:station:wmo:42877:1,2023-01-01T20:43:00Z,28.9072,-88.5825,9.3,23.1,11111222
Murphy,ioos:station:wmo:42877:1,2023-01-01T20:53:00Z,28.9072,-88.5825,9.3,23.2,11111222
Murphy,ioos:station:wmo:42877:1,2023-01-01T21:03:00Z,28.9072,-88.5825,9.3,23.1,11111222
Murphy,ioos:station:wmo:42877:1,2023-01-01T21:13:00Z,28.9072,-88.5825,9.3,23.3,11111222
Murphy,ioos:station:wmo:42877:1,2023-01-01T21:23:00Z,28.9072,-88.5825,9.3,23.3,11111222
Murphy,ioos:station:wmo:42877:1,2023-01-01T21:33:00Z,28.9072,-88.5825,9.2,23.3,11111222
Murphy,ioos:station:wmo:42877:1,2023-01-01T21:43:00Z,28.9072,-88.5825,9.2,23.3,11111222
Murphy,ioos:station:wmo:42877:1,2023-01-01T21:53:00Z,28.9072,-88.5825,9.2,23.2,11111222
Murphy,ioos:station:wmo:42877:1,2023-01-01T22:03:00Z,28.9072,-88.5825,9.3,23.1,11111222
Murphy,ioos:station:wmo:42877:1,2023-01-01T22:13:00Z,28.9072,-88.5825,9.3,22.9,11111222
Murphy,ioos:station:wmo:42877:1,2023-01-01T22:23:00Z,28.9072,-88.5825,9.3,22.9,11111222
Murphy,ioos:station:wmo:42877:1,2023-01-01T22:33:00Z,28.9072,-88.5825,9.3,22.9,11111222
Murphy,ioos:station:wmo:42877:1,2023-01-01T22:43:00Z,28.9072,-88.5825,9.3,22.9,11111222
Murphy,ioos:station:wmo:42877:1,2023-01-01T22:53:00Z,28.9072,-88.5825,9.3,23.0,11111222
Murphy,ioos:station:wmo:42877:1,2023-01-01T23:03:00Z,28.9072,-88.5825,9.3,22.9,11111222
Murphy,ioos:station:wmo:42877:1,2023-01-01T23:13:00Z,28.9072,-88.5825,9.4,22.9,11111222
Murphy,ioos:station:wmo:42877:1,2023-01-01T23:23:00Z,28.9072,-88.5825,9.4,22.8,11111222
Murphy,ioos:station:wmo:42877:1,2023-01-01T23:33:00Z,28.9072,-88.5825,9.3,22.8,11111222
Murphy,ioos:station:wmo:42877:1,2023-01-01T23:43:00Z,28.9072,-88.5825,9.3,22.7,11111222
Murphy,ioos:station:wmo:42877:1,2023-01-01T23:53:00Z,28.9072,-88.5825,9.3,22.8,11111222
Murphy,ioos:station:wmo:42877:1,2023-01-02T00:03:00Z,28.9072,-88.5825,9.3,22.7,11111222
Murphy,ioos:station:wmo:42877:1,2023-01-02T00:13:00Z,28.9072,-88.5825,9.3,22.8,11111222
Murphy,ioos:station:wmo:42877:1,2023-01-02T00:23:00Z,28.9072,-88.5825,9.3,22.8,11111222
Murphy,ioos:station:wmo:42877:1,2023-01-02T00:33:00Z,28.9072,-88.5825,9.3,22.8,11111222
Murphy,ioos:station:wmo:42877:1,2023-01-02T00:43:00Z,28.9072,-88.5825,9.3,22.7,11111222
Murphy,ioos:station:wmo:42877:1,2023-01-02T00:53:00Z,28.9072,-88.5825,9.3,22.8,11111222
Murphy,ioos:station:wmo:42877:1,2023-01-02T01:03:00Z,28.9072,-88.5825,9.3,22.8,11111222
Murphy,ioos:station:wmo:42877:1,2023-01-02T01:13:00Z,28.9072,-88.5825,9.3,23.1,11111222
Murphy,ioos:station:wmo:42877:1,2023-01-02T01:23:00Z,28.9072,-88.5825,9.3,23.1,11111222
Murphy,ioos:station:wmo:42877:1,2023-01-02T01:33:00Z,28.9072,-88.5825,9.3,23.1,11111222
Murphy,ioos:station:wmo:42877:1,2023-01-02T01:43:00Z,28.9072,-88.5825,9.4,22.9,11111222
Murphy,ioos:station:wmo:42877:1,2023-01-02T01:53:00Z,28.9072,-88.5825,9.3,23.0,11111222
Murphy,ioos:station:wmo:42877:1,2023-01-02T02:03:00Z,28.9072,-88.5825,9.3,23.1,11111222
Murphy,ioos:station:wmo:42877:1,2023-01-02T02:13:00Z,28.9072,-88.5825,9.3,22.8,11111222
Murphy,ioos:station:wmo:42877:1,2023-01-02T02:23:00Z,28.9072,-88.5825,9.3,22.7,11111222
Murphy,ioos:station:wmo:42877:1,2023-01-02T02:34:00Z,28.9072,-88.5825,9.3,22.6,11111222
Murphy,ioos:station:wmo:42877:1,2023-01-02T02:44:00Z,28.9072,-88.5825,9.3,22.5,11111222
Murphy,ioos:station:wmo:42877:1,2023-01-02T02:54:00Z,28.9072,-88.5825,9.3,22.5,11111222
Murphy,ioos:station:wmo:42877:1,2023-01-02T03:04:00Z,28.9072,-88.5825,9.3,22.5,11111222
Murphy,ioos:station:wmo:42877:1,2023-01-02T03:14:00Z,28.9072,-88.5825,9.3,22.4,11111222
Murphy,ioos:station:wmo:42877:1,2023-01-02T03:24:00Z,28.9072,-88.5825,9.3,22.4,11111222
Murphy,ioos:station:wmo:42877:1,2023-01-02T03:34:00Z,28.9072,-88.5825,9.3,22.4,11111222
Murphy,ioos:station:wmo:42877:1,2023-01-02T03:44:00Z,28.9072,-88.5825,9.3,22.3,11111222
Murphy,ioos:station:wmo:42877:1,2023-01-02T03:54:00Z,28.9072,-88.5825,9.3,22.3,11111222
Murphy,ioos:station:wmo:42877:1,2023-01-02T04:04:00Z,28.9072,-88.5825,9.3,22.3,11111222
Murphy,ioos:station:wmo:42877:1,2023-01-02T04:14:00Z,28.9072,-88.5825,9.3,22.3,11111222
Murphy,ioos:station:wmo:42877:1,2023-01-02T04:24:00Z,28.9072,-88.5825,9.3,22.3,11111222
Murphy,ioos:station:wmo:42877:1,2023-01-02T04:34:00Z,28.9072,-88.5825,9.3,22.3,11111222
Murphy,ioos:station:wmo:42877:1,2023-01-02T04:44:00Z,28.9072,-88.5825,9.3,22.3,11111222
Murphy,ioos:station:wmo:42877:1,2023-01-02T04:54:00Z,28.9072,-88.5825,9.3,22.3,11111222
Murphy,ioos:station:wmo:42877:1,2023-01-02T05:04:00Z,28.9072,-88.5825,9.3,22.3,11111222
Murphy,ioos:station:wmo:42877:1,2023-01-02T05:14:00Z,28.9072,-88.5825,9.4,22.4,11111222
Murphy,ioos:station:wmo:42877:1,2023-01-02T05:24:00Z,28.9072,-88.5825,9.3,22.2,11111222
Murphy,ioos:station:wmo:42877:1,2023-01-02T05:34:00Z,28.9072,-88.5825,9.4,22.2,11111222
Murphy,ioos:station:wmo:42877:1,2023-01-02T05:44:00Z,28.9072,-88.5825,9.3,22.3,11111222
Murphy,ioos:station:wmo:42877:1,2023-01-02T05:54:00Z,28.9072,-88.5825,9.3,22.3,11111222
Murphy,ioos:station:wmo:42877:1,2023-01-02T06:04:00Z,28.9072,-88.5825,9.4,22.3,11111222
Murphy,ioos:station:wmo:42877:1,2023-01-02T06:14:00Z,28.9072,-88.5825,9.3,22.3,11111222
Murphy,ioos:station:wmo:42877:1,2023-01-02T06:24:00Z,28.9072,-88.5825,9.4,22.3,11111222
Murphy,ioos:station:wmo:42877:1,2023-01-02T06:34:00Z,28.9072,-88.5825,9.6,22.3,11111222
Murphy,ioos:station:wmo:42877:1,2023-01-02T06:44:00Z,28.9072,-88.5825,9.6,22.3,11111222
Murphy,ioos:station:wmo:42877:1,2023-01-02T06:54:00Z,28.9072,-88.5825,9.6,22.3,11111222
Murphy,ioos:station:wmo:42877:1,2023-01-02T07:04:00Z,28.9072,-88.5825,9.6,22.3,11111222
Murphy,ioos:station:wmo:42877:1,2023-01-02T07:14:00Z,28.9072,-88.5825,9.6,22.2,11111222
Murphy,ioos:station:wmo:42877:1,2023-01-02T07:24:00Z,28.9072,-88.5825,9.7,22.2,11111222
Murphy,ioos:station:wmo:42877:1,2023-01-02T07:34:00Z,28.9072,-88.5825,9.7,22.2,11111222
Murphy,ioos:station:wmo:42877:1,2023-01-02T07:44:00Z,28.9072,-88.5825,9.7,22.2,11111222
Murphy,ioos:station:wmo:42877:1,2023-01-02T07:54:00Z,28.9072,-88.5825,9.7,22.2,11111222
Murphy,ioos:station:wmo:42877:1,2023-01-02T08:04:00Z,28.9072,-88.5825,9.7,22.2,11111222
Murphy,ioos:station:wmo:42877:1,2023-01-02T08:14:00Z,28.9072,-88.5825,9.7,22.2,11111222
Murphy,ioos:station:wmo:42877:1,2023-01-02T08:24:00Z,28.9072,-88.5825,9.6,22.2,11111222
Murphy,ioos:station:wmo:42877:1,2023-01-02T08:34:00Z,28.9072,-88.5825,9.4,22.2,11111222
Murphy,ioos:station:wmo:42877:1,2023-01-02T08:44:00Z,28.9072,-88.5825,9.3,22.2,11111222
Murphy,ioos:station:wmo:42877:1,2023-01-02T08:54:00Z,28.9072,-88.5825,9.3,22.2,11111222
Murphy,ioos:station:wmo:42877:1,2023-01-02T09:04:00Z,28.9072,-88.5825,9.3,22.2,11111222
Murphy,ioos:station:wmo:42877:1,2023-01-02T09:14:00Z,28.9072,-88.5825,9.3,22.2,11111222
Murphy,ioos:station:wmo:42877:1,2023-01-02T09:24:00Z,28.9072,-88.5825,9.3,22.3,11111222
Murphy,ioos:station:wmo:42877:1,2023-01-02T09:34:00Z,28.9072,-88.5825,9.3,22.3,11111222
Murphy,ioos:station:wmo:42877:1,2023-01-02T09:44:00Z,28.9072,-88.5825,9.3,22.3,11111222
Murphy,ioos:station:wmo:42877:1,2023-01-02T09:55:00Z,28.9072,-88.5825,9.3,22.3,11111222
Murphy,ioos:station:wmo:42877:1,2023-01-02T10:05:00Z,28.9072,-88.5825,9.3,22.3,11111222
Murphy,ioos:station:wmo:42877:1,2023-01-02T10:15:00Z,28.9072,-88.5825,9.3,22.3,11111222
Murphy,ioos:station:wmo:42877:1,2023-01-02T10:25:00Z,28.9072,-88.5825,9.3,22.3,11111222
Murphy,ioos:station:wmo:42877:1,2023-01-02T10:35:00Z,28.9072,-88.5825,9.3,22.3,11111222
Murphy,ioos:station:wmo:42877:1,2023-01-02T10:45:00Z,28.9072,-88.5825,9.3,22.3,11111222
Murphy,ioos:station:wmo:42877:1,2023-01-02T10:55:00Z,28.9072,-88.5825,9.3,22.3,11111222
Murphy,ioos:station:wmo:42877:1,2023-01-02T11:05:00Z,28.9072,-88.5825,9.3,22.2,11111222
Murphy,ioos:station:wmo:42877:1,2023-01-02T11:15:00Z,28.9072,-88.5825,9.3,22.2,11111222
Murphy,ioos:station:wmo:42877:1,2023-01-02T11:25:00Z,28.9072,-88.5825,9.3,22.2,11111222
Murphy,ioos:station:wmo:42877:1,2023-01-02T11:35:00Z,28.9072,-88.5825,9.3,22.2,11111222
Murphy,ioos:station:wmo:42877:1,2023-01-02T11:45:00Z,28.9072,-88.5825,9.3,22.2,11111222
Murphy,ioos:station:wmo:42877:1,2023-01-02T11:55:00Z,28.9072,-88.5825,9.3,22.2,11111222
Murphy,ioos:station:wmo:42877:1,2023-01-02T12:05:00Z,28.9072,-88.5825,9.3,22.2,11111222
Murphy,ioos:station:wmo:42877:1,2023-01-02T12:15:00Z,28.9072,-88.5825,9.3,22.1,11111222
Murphy,ioos:station:wmo:42877:1,2023-01-02T12:25:00Z,28.9072,-88.5825,9.3,22.1,11111222
Murphy,ioos:station:wmo:42877:1,2023-01-02T12:35:00Z,28.9072,-88.5825,9.3,22.1,11111222
Murphy,ioos:station:wmo:42877:1,2023-01-02T12:45:00Z,28.9072,-88.5825,9.3,22.2,11111222
Murphy,ioos:station:wmo:42877:1,2023-01-02T12:55:00Z,28.9072,-88.5825,9.3,22.1,11111222
Murphy,ioos:station:wmo:42877:1,2023-01-02T13:05:00Z,28.9072,-88.5825,9.4,22.1,11111222
Murphy,ioos:station:wmo:42877:1,2023-01-02T13:15:00Z,28.9072,-88.5825,9.3,22.1,11111222
Murphy,ioos:station:wmo:42877:1,2023-01-02T13:25:00Z,28.9072,-88.5825,9.3,22.1,11111222
Murphy,ioos:station:wmo:42877:1,2023-01-02T13:35:00Z,28.9072,-88.5825,9.3,22.1,11111222
Murphy,ioos:station:wmo:42877:1,2023-01-02T13:45:00Z,28.9072,-88.5825,9.3,22.1,11111222
Murphy,ioos:station:wmo:42877:1,2023-01-02T13:55:00Z,28.9072,-88.5825,9.3,22.1,11111222
Murphy,ioos:station:wmo:42877:1,2023-01-02T14:05:00Z,28.9072,-88.5825,9.3,22.1,11111222
Murphy,ioos:station:wmo:42877:1,2023-01-02T14:15:00Z,28.9072,-88.5825,9.3,22.1,11111222
Murphy,ioos:station:wmo:42877:1,2023-01-02T14:25:00Z,28.9072,-88.5825,9.3,22.1,11111222
Murphy,ioos:station:wmo:42877:1,2023-01-02T14:35:00Z,28.9072,-88.5825,9.3,22.1,11111222
Murphy,ioos:station:wmo:42877:1,2023-01-02T14:45:00Z,28.9072,-88.5825,9.3,22.1,11111222
Murphy,ioos:station:wmo:42877:1,2023-01-02T14:55:00Z,28.9072,-88.5825,9.3,22.1,11111222
Murphy,ioos:station:wmo:42877:1,2023-01-02T15:05:00Z,28.9072,-88.5825,9.4,22.1,11111222
Murphy,ioos:station:wmo:42877:1,2023-01-02T15:15:00Z,28.9072,-88.5825,9.4,22.1,11111222
Murphy,ioos:station:wmo:42877:1,2023-01-02T15:25:00Z,28.9072,-88.5825,9.4,22.1,11111222
Murphy,ioos:station:wmo:42877:1,2023-01-02T15:35:00Z,28.9072,-88.5825,9.4,22.1,11111222
Murphy,ioos:station:wmo:42877:1,2023-01-02T15:45:00Z,28.9072,-88.5825,9.4,22.1,11111222
Murphy,ioos:station:wmo:42877:1,2023-01-02T15:55:00Z,28.9072,-88.5825,9.3,22.1,11111222
Murphy,ioos:station:wmo:42877:1,2023-01-02T16:05:00Z,28.9072,-88.5825,9.3,22.1,11111222
Murphy,ioos:station:wmo:42877:1,2023-01-02T16:15:00Z,28.9072,-88.5825,9.3,22.1,11111222
Murphy,ioos:station:wmo:42877:1,2023-01-02T16:25:00Z,28.9072,-88.5825,9.3,22.1,11111222
Murphy,ioos:station:wmo:42877:1,2023-01-02T16:35:00Z,28.9072,-88.5825,9.3,22.1,11111222
Murphy,ioos:station:wmo:42877:1,2023-01-02T16:45:00Z,28.9072,-88.5825,9.3,22.1,11111222
Murphy,ioos:station:wmo:42877:1,2023-01-02T16:55:00Z,28.9072,-88.5825,9.3,22.1,11111222
Murphy,ioos:station:wmo:42877:1,2023-01-02T17:05:00Z,28.9072,-88.5825,9.3,22.1,11111222
Murphy,ioos:station:wmo:42877:1,2023-01-02T17:16:00Z,28.9072,-88.5825,9.3,22.1,11111222
Murphy,ioos:station:wmo:42877:1,2023-01-02T17:26:00Z,28.9072,-88.5825,9.3,22.1,11111222
Murphy,ioos:station:wmo:42877:1,2023-01-02T17:36:00Z,28.9072,-88.5825,9.3,22.1,11111222
Murphy,ioos:station:wmo:42877:1,2023-01-02T17:46:00Z,28.9072,-88.5825,9.3,22.1,11111222
Murphy,ioos:station:wmo:42877:1,2023-01-02T17:56:00Z,28.9072,-88.5825,9.3,22.0,11111222
Murphy,ioos:station:wmo:42877:1,2023-01-02T18:06:00Z,28.9072,-88.5825,9.3,22.1,11111222
Murphy,ioos:station:wmo:42877:1,2023-01-02T18:16:00Z,28.9072,-88.5825,9.3,22.0,11111222
Murphy,ioos:station:wmo:42877:1,2023-01-02T18:26:00Z,28.9072,-88.5825,9.3,22.1,11111222
Murphy,ioos:station:wmo:42877:1,2023-01-02T18:36:00Z,28.9072,-88.5825,9.3,22.1,11111222
Murphy,ioos:station:wmo:42877:1,2023-01-02T18:46:00Z,28.9072,-88.5825,9.3,22.1,11111222
Murphy,ioos:station:wmo:42877:1,2023-01-02T18:56:00Z,28.9072,-88.5825,9.3,22.1,11111222
Murphy,ioos:station:wmo:42877:1,2023-01-02T19:06:00Z,28.9072,-88.5825,9.3,22.1,11111222
Murphy,ioos:station:wmo:42877:1,2023-01-02T19:16:00Z,28.9072,-88.5825,9.3,22.1,11111222
Murphy,ioos:station:wmo:42877:1,2023-01-02T19:26:00Z,28.9072,-88.5825,9.3,22.1,11111222
Murphy,ioos:station:wmo:42877:1,2023-01-02T19:36:00Z,28.9072,-88.5825,9.3,22.1,11111222
Murphy,ioos:station:wmo:42877:1,2023-01-02T19:46:00Z,28.9072,-88.5825,9.3,22.2,11111222
Murphy,ioos:station:wmo:42877:1,2023-01-02T19:56:00Z,28.9072,-88.5825,9.3,22.2,11111222
Murphy,ioos:station:wmo:42877:1,2023-01-02T20:06:00Z,28.9072,-88.5825,9.3,22.2,11111222
Murphy,ioos:station:wmo:42877:1,2023-01-02T20:16:00Z,28.9072,-88.5825,9.3,22.2,11111222
Murphy,ioos:station:wmo:42877:1,2023-01-02T20:26:00Z,28.9072,-88.5825,9.3,22.2,11111222
Murphy,ioos:station:wmo:42877:1,2023-01-02T20:36:00Z,28.9072,-88.5825,9.3,22.2,11111222